This is the latest recevied weather packets stored in our database for station/object EA7AVH-10. If no packets are shown the sender has not sent any weather packets the latest 10 day(s).
| Time | Temp. | Humidity | Pressure | Rain* | Wind** | Luminosity | Snow |
|---|---|---|---|---|---|---|---|
| 1777436241 | 12.78° C | 76% | 918.5 hPa | - | - | - | - |
| 1777435340 | 12.78° C | 75% | 918.5 hPa | - | - | - | - |
| 1777434439 | 12.22° C | 76% | 918.6 hPa | - | - | - | - |
| 1777433538 | 12.22° C | 75% | 918.5 hPa | - | - | - | - |
| 1777432637 | 13.33° C | 75% | 918.5 hPa | - | - | - | - |
| 1777431736 | 13.33° C | 74% | 918.4 hPa | - | - | - | - |
| 1777430836 | 13.33° C | 74% | 918.2 hPa | - | - | - | - |
| 1777429934 | 13.33° C | 74% | 918.1 hPa | - | - | - | - |
| 1777429034 | 12.78° C | 74% | 918.2 hPa | - | - | - | - |
| 1777428133 | 12.22° C | 75% | 918.1 hPa | - | - | - | - |
| 1777427232 | 12.22° C | 75% | 918.1 hPa | - | - | - | - |
| 1777426331 | 12.22° C | 75% | 918.2 hPa | - | - | - | - |
| 1777425430 | 12.22° C | 76% | 918.1 hPa | - | - | - | - |
| 1777424530 | 11.67° C | 76% | 918 hPa | - | - | - | - |
| 1777423629 | 12.22° C | 76% | 918.3 hPa | - | - | - | - |
| 1777422728 | 12.22° C | 77% | 918.5 hPa | - | - | - | - |
| 1777421827 | 12.22° C | 76% | 918.6 hPa | - | - | - | - |
| 1777420926 | 12.22° C | 76% | 918.8 hPa | - | - | - | - |
| 1777420026 | 12.78° C | 76% | 918.8 hPa | - | - | - | - |
| 1777419125 | 12.78° C | 76% | 918.9 hPa | - | - | - | - |
| 1777418224 | 12.78° C | 75% | 919.1 hPa | - | - | - | - |
| 1777417343 | 12.78° C | 76% | 919.1 hPa | - | - | - | - |
| 1777416442 | 13.89° C | 75% | 919.2 hPa | - | - | - | - |
| 1777415541 | 14.44° C | 74% | 919.3 hPa | - | - | - | - |
| 1777414641 | 14.44° C | 74% | 919.4 hPa | - | - | - | - |
* Rain since midnight (hover to see other rain measurements)
** Current wind speed in m/s (hover to see current wind gust speed)